Retour au catalogue

DRESDEN

ActifScienceSSO
NORAD 65297·PAYLOAD·🇷🇼 Rwanda

Lancé Aug 23, 2025 depuis Rocket Lab Launch Complex 1

Loading…

Prochains Passages (prochaines 24 heures)

TLE

FraisSource: Space-Track

Époque: Sep 14, 2026, 04:15 UTC

1 65297U 25185A   26257.17757593  .00006092  00000-0  79511-3 0  9999
2 65297  97.9620 339.7636 0015370 154.6891 205.5078 14.80797181 56993

Suivez DRESDEN en temps réel avec AllMySat

Download on the App Store